Weather Roundup
Issued by NWS Chicago, IL

Home | Current Version | Previous Version | Text Only | Print | Product List | Glossary On
Versions: 1 2 3 4 5 6 7 8 9 10 11 12 13 14 15 16 17 18 19 20 21 22 23 24 25 26 27 28 29 30 31 32 33 34 35 36 37 38 39 40 41 42 43 44 45 46 47 48 49 50
000
NZUS59 KLOT 011306
HRRLOT

CHICAGO AREA WEATHER ROUNDUP
NATIONAL WEATHER SERVICE CHICAGO/ROMEOVILLE IL
700 AM CST SUN MAR 01 2015

NOTE: "FAIR" INDICATES FEW OR NO CLOUDS BELOW 12,000 FEET WITH NO
SIGNIFICANT WEATHER AND/OR OBSTRUCTIONS TO VISIBILITY.

* THESE STATIONS ARE NOT UNDER NWS QUALITY CONTROL. THEY ALSO MAY NOT
  REPORT WEATHER SUCH AS PRECIPITATION OR FOG.

ILZ005-006-012>014-019>023-011400-
NORTHEAST ILLINOIS

CITY           SKY/WX    TMP DP  RH WIND       PRES   REMARKS
OHARE          CLOUDY    17  14  88 CALM      30.35F FOG
MIDWAY         CLOUDY    20  16  84 CALM      30.37F
AURORA         HAZE      11   6  81 CALM      30.37F VSB 3/4
LANSING*       CLOUDY    18  16  93 SE3       30.38F
JOLIET*        CLOUDY    15  13  92 CALM      30.39R FOG
WAUKEGAN       CLOUDY    14  13  95 CALM      30.35F FOG
DUPAGE AIRPORT CLOUDY    13  10  88 CALM      30.35F FOG
WHEELING       CLOUDY    16  12  84 CALM      30.38F FOG
KANKAKEE*      LGT SNOW  20  18  91 CALM      30.39R
MORRIS*        CLOUDY    14  13  94 CALM      30.37R FOG
LEWIS AIRPORT* MOCLDY    16  14  92 CALM      30.37R FOG
NORTHERLY IS     N/A     20  16  84 CALM        N/A
$$

WIZ051-052-058>065-066-070>072-011400-
SOUTHEAST WISCONSIN

CITY           SKY/WX    TMP DP  RH WIND       PRES   REMARKS
MILWAUKEE      CLOUDY    14  10  84 S3        30.35F FOG
KENOSHA*       CLOUDY    14  12  92 SW5       30.35F FOG     WCI   6
RACINE*        CLOUDY    14  10  84 SW7       30.37F FOG     WCI   4
BURLINGTON     CLOUDY     9   7  91 CALM      30.35S FOG
WAUKESHA       MOCLDY     7   5  92 S5        30.34F FOG     WCI  -2
WEST BEND      MOCLDY    14  10  85 SW3       30.32F
$$

INZ001>003-010>013-019-020-011400-
NORTHWEST INDIANA

CITY           SKY/WX    TMP DP  RH WIND       PRES   REMARKS
GARY*          CLOUDY    19  14  79 CALM      30.38F FOG
MICHIGAN CITY* NOT AVBL
RENSSELAER*    NOT AVBL
VALPARAISO     CLOUDY    17  14  88 E5        30.37F FOG     WCI  10
$$

LMZ740>746-011400-
SOUTHERN LAKE MICHIGAN

STATION/POSITION TIME  SKY/WX   TEMP WIND        PRES    VSBY
                                AIR  DIR/SP/G
                 (UTC)          (F)  (DEG/KT/KT) (MB)    (MI)
HARRISON CRIB    1300            20  310/  2/  4   N/A
BURNHAM HARBOR   1300            20   CALM  /  2   N/A
CALUMET HARBOR   1300                 50/  2/  2 1027.0F
BURNS HARBOR     NOT AVBL
MICHIGAN CITY    1300            17   90/  4/  6   N/A
$$

ABBREVIATIONS USED IN REMARKS
   TC - TEMPERATURE IN CELSIUS
  WCI - WIND CHILL INDEX
   HX - HEAT INDEX
  VSB - VISIBILITY
$$


USA.gov is the U.S. government's official web portal to all federal, state and local government web resources and services.